Near-Earth-Asteroid Tracking Team (Jet Propulsion Laboratory)
軌道要素
Epoch = 2002 July 25.0 TT
T = 2002 Aug. 3.10144 TT Peri. = 15.30571
e = 0.5973957 Node = 282.20995 2000.0
q = 1.1742394 AU Incl. = 20.39966
a = 2.9166089 AU n = 0.19787311 P = 4.98 years
星図
光度変化
m1 = 18.0 + 5 logΔ + 10.0 log r
軌道要素は、
IAUC 8856
に掲載されたものです。
星図は StellaNavigator Ver.2.0 for Windows
(アストロアーツ
編著 / アスキー出版局刊) で作成したものです。
光度グラフはComet for
Windowsで作成したものです。
Copyright(C) Seiichi Yoshida (comet@aerith.net). All rights reserved.